Tracking 29747 objects as of 9-Oct-2024
HD Live streaming from Space Station
objects crossing your sky now

SL-14 DEB

Track SL-14 DEB now!
10-day predictions


NORAD ID: 45330
Int'l Code: 1991-056BU
Perigee: 1,062.1 km
Apogee: 1,189.9 km
Inclination: 82.6 °
Period: 107.7 minutes
Semi major axis: 7496 km
RCS: Unknown
Launch date: August 15, 1991
Source: Commonwealth of Independent States (former USSR) (CIS)
Launch site: PLESETSK MISSILE AND SPACE COMPLEX (PKMTR)

Note: This is SATELLITE DEBRIS
Your satellite tracking list
Your tracking list is empty




NASA's NSSDC Master Catalog

Two Line Element Set (TLE):
1 45330U 91056BU  24282.71858465  .00006484  00000-0  12115-1 0  9991
2 45330  82.5661 177.7885 0085228  20.3897 340.0605 13.37434477224360
Source of the keplerian elements: AFSPC